Regional Weather Roundup
Issued by NWS

Home | Current Version | Previous Version | Text Only | Print | Product List | Glossary Off
Versions: 1 2 3 4 5 6 7 8 9 10 11 12 13 14 15 16 17 18 19 20 21 22 23 24 25 26 27 28 29 30 31 32 33 34 35 36 37 38 39 40 41 42 43 44 45 46 47 48 49 50

000
ASUS45 KCYS 261410
RWRWY

WYOMING REGIONAL WEATHER ROUNDUP
NATIONAL WEATHER SERVICE CHEYENNE WY
800 AM MDT SUN APR 26 2015

NOTE:  "FAIR" INDICATES FEW OR NO CLOUDS BELOW 12,000 FEET
WITH NO SIGNIFICANT WEATHER AND/OR OBSTRUCTIONS TO VISIBILITY.

WYZ001-261500-
YELLOWSTONE NATIONAL PARK

CITY           SKY/WX    TMP DP  RH WIND       PRES   REMARKS
LK YELLOWSTONE   N/A     31  24  75 VRB5      29.86R WCI  26
W YELLOWSTONE  NOT AVBL

$$
WYZ002>013-054>058-071-098>099-261500-
NORTHERN WYOMING

CITY           SKY/WX    TMP DP  RH WIND       PRES   REMARKS
JACKSON        CLOUDY    36  36 100 CALM      29.80R
CODY           CLOUDY    36  30  80 NW10      29.92R WCI  28
GREYBULL       CLOUDY    45  36  70 NW13      29.86S
WORLAND        LGT RAIN  41  36  82 N3        29.87R
SHERIDAN       CLOUDY    39  35  86 CALM      29.98R
BUFFALO        LGT RAIN  37  34  89 N6        29.97R WCI  32
GILLETTE       CLOUDY    39  36  89 NE12      29.94R WCI  32
HULETT         CLOUDY    41  37  87 NE7       29.97R
NEWCASTLE      FAIR      45  43  93 CALM      29.90S

$$
WYZ014>020-022>026-101>103-261500-
CENTRAL WYOMING

CITY           SKY/WX    TMP DP  RH WIND       PRES   REMARKS
BIG PINEY      LGT RAIN  38  35  89 SE13      29.79R WCI  30
PINEDALE       RAIN      36  34  93 E6        29.80R WCI  31
DUBOIS         LGT SNOW  32  32 100 SE8       29.84R WCI  25
LANDER         LGT SNOW  33  32  96 NW8       29.86R FOG     WCI  26
RIVERTON       LGT RAIN  34  33  96 N12       29.86R WCI  25
CASPER         LGT RAIN  35  33  92 NE12      29.88R WCI  27
DOUGLAS        LGT RAIN  41  41 100 NW7       29.88R FOG

$$
WYZ021-027>030-104>119-261500-
SOUTHERN WYOMING

CITY           SKY/WX    TMP DP  RH WIND       PRES   REMARKS
EVANSTON       LGT SNOW  32  31  96 W10       29.82R FOG     WCI  24
KEMMERER       CLOUDY    34  34 100 W12       29.78R WCI  25
FORT BRIDGER   CLOUDY    36  36 100 W21       29.82R WCI  24
ROCK SPRINGS   FAIR      39  35  86 SE7       29.77R WCI  34
DIXON          FAIR      43  36  77 CALM      29.81R
RAWLINS        FAIR      40  35  83 E9        29.82R WCI  34
SARATOGA       CLOUDY    39  36  87 S7        29.81R WCI  34
LARAMIE        CLOUDY    37  35  92 CALM      29.84R
CHEYENNE       CLOUDY    42  40  92 S12       29.84R
TORRINGTON     LGT RAIN  47  45  93 E14       29.85R
PINE BLUFFS    RAIN      43  41  93 S8        29.87R

$$



USA.gov is the U.S. government's official web portal to all federal, state and local government web resources and services.